Orbital elements:
2019 RC                                             PHA, Earth MOID = 0.0274 AU
Epoch 2019 Apr. 27.0 TT = JDT 2458600.5                 Bell
M 305.96678              (2000.0)            P               Q
n   0.33476839     Peri.  202.19326     +0.95240916     -0.30297756
a   2.0541859      Node   175.06587     +0.30346626     +0.95278427
e   0.5093505      Incl.   22.91323     -0.02872306     +0.02016735
P   2.94           H   21.7           G   0.15           U   8
Residuals in seconds of arc
190902 T05  0.0   0.1+    190903 595  0.5-  0.3-    190903 160  0.1-  0.7+
190902 T05  0.3-  0.0     190903 203  0.1+  0.4-    190904 711  0.6+  0.3+
190902 T05  0.5-  0.1-    190903 K38  0.7+  0.0     190904 711  0.2+  0.3+
190902 T05  0.8+  0.5+    190903 595  0.5-  0.8-    190904 711  0.6+  0.3+
190903 W34  0.5+  1.0-    190903 246  0.4-  0.1+    190904 711  0.2+  0.3+
190903 W34  0.4+  0.5-    190903 246  0.7-  0.4+    190904 711 (2.8+  0.3-)
190903 W34  0.5-  0.5-    190903 246  0.1-  0.5-    190904 711 (2.5+  0.2-)
190903 H21  0.4-  0.2+    190903 246  0.5-  0.1+    190904 I52  0.6-  0.1+
190903 H21  0.0   0.2+    190903 A44  0.4-  0.1-    190904 I52  0.0   0.4-
190903 H21  0.6+  0.3+    190903 203  0.0   0.3-    190904 I52  0.3-  0.2+
190903 H01  0.1-  0.1+    190903 A44  0.1+  0.1+    190904 658  0.2+  0.3-
190903 H01  0.2-  0.2+    190903 A44  0.3-  0.5-    190904 658  0.1+  0.3-
190903 H01  0.1-  0.1+    190903 L01  0.4+  0.3-    190904 658  0.2+  0.2-
190903 H01  0.0   0.1+    190903 L01  0.7+  0.2+    190904 658  0.1-  0.4-
190903 104  0.6-  0.3+    190903 L01  0.8-  0.1+    190904 658  0.5+  0.5-
190903 A17  0.2-  0.6+    190903 A44  0.3+  0.2-    190904 K61  0.4+  1.0+
190903 K38  0.4+  0.0     190903 L01  0.0   0.1+    190904 K88  0.0   0.0
190903 A17  0.3+  0.2+    190903 203  0.0   0.3+    190904 K88  0.0   0.2-
190903 104  0.3-  0.2-    190903 160  0.0   0.6-    190904 K61  0.5-  0.4-
190903 A17  0.1+  0.4+    190903 K38  0.2-  0.2-    190904 K61  0.2+  0.5+
190903 A17  0.1+  0.3-    190903 160  0.0   0.2+    190904 K88  0.0   0.2-
190903 104  0.1+  0.5+    190903 160  1.0+  0.9+    190904 K61  0.6-  0.1-

2019 RC                                                                         
Epoch 2019 Apr. 27.0 TT = JDT 2458600.5                 Bell                    
M 305.96678              (2000.0)            P               Q                  
n   0.33476839     Peri.  202.19326     +0.95240916     -0.30297756             
a   2.0541859      Node   175.06587     +0.30346626     +0.95278427             
e   0.5093505      Incl.   22.91323     -0.02872306     +0.02016735             
P   2.94           H   21.7           G   0.15           U   8                  
>From 64 observations 2019 Sept. 2-4, mean residual 0".39.                       
                                                                                
Ephemeris:
2019 RC                  a,e,i = 2.05, 0.51, 23                  q = 1.0079
Date    TT    R. A. (2000) Decl.     Delta      r    Elong.  Phase     V
2019 08 05    20 51 04.2 +44 05 32   0.3756  1.2396   118.7    45.9    21.8
...
2019 08 20    21 06 25.1 +47 59 11   0.2471  1.1501   118.4    50.7    20.8
...
2019 08 28    21 28 15.8 +49 40 00   0.1792  1.1086   119.1    52.8    20.1
...
2019 09 03    22 03 05.4 +50 24 24   0.1292  1.0812   121.0    53.1    19.4
2019 09 04    22 11 54.1 +50 24 11   0.1210  1.0770   121.6    53.0    19.2
2019 09 05    22 21 59.8 +50 19 31   0.1130  1.0729   122.2    52.7    19.1
...
2019 09 11    00 04 08.6 +45 32 01   0.06800 1.0505   128.4    48.7    17.8
...
2019 09 19    03 56 46.3 -04 06 42   0.04843 1.0275   116.7    60.8    17.4
...
2019 10 04    06 32 11.6 -40 50 24   0.1532  1.0079    88.4    82.9    20.5

A. U. Tomatic                (C) Copyright 2019 MPC           M.P.E.C. 2019-R27




More information about the Iaude mailing list